Weather History for CWLY - August, 2013

Change the Weather History Date:

Wednesday, August 21, 2013

  Actual Average Record
Temperature  
Mean Temperature 72 °F -  
Max Temperature 91 °F - - ()
Min Temperature 52 °F - - ()
Cooling Degree Days 6    
Growing Degree Days 22 (Base 50)    
Moisture  
Dew Point 40 °F    
Average Humidity 33    
Maximum Humidity 58    
Minimum Humidity 8    
Precipitation  
Precipitation 0.00 in - - ()
Sea Level Pressure  
Sea Level Pressure 30.05 in    
Wind  
Wind Speed 3 mph ()    
Max Wind Speed 10 mph    
Max Gust Speed -    
Visibility 9.0 miles    
Events      
T = Trace of Precipitation, MM = Missing Value Source: Averaged Metar Reports

Daily Weather History Graph

Daily Weather History Graph

Search for Another Location

Airport or City:

Trip Planner

Search our weather history database for the weather conditions in past years. The results will help you decide how hot, cold, wet, or windy it might be!

Date:

Astronomy

Aug. 21, 2013 Rise Set
Actual Time 6:05 AM PDT 8:12 PM PDT
Civil Twilight 5:29 AM PDT 8:47 PM PDT
Nautical Twilight 4:45 AM PDT 9:31 PM PDT
Astronomical Twilight 3:55 AM PDT 10:20 PM PDT
Moon 8:10 PM PDT (8/21) 7:01 AM PDT (8/21)
Length of Visible Light 15h 17m
Length of Day
14h 07m
Full, 99% of the Moon is Illuminated
Aug 21
Full
Aug 28
Last Quarter
Sep 5
New
Sep 12
First Quarter
Sep 19
Full

Hourly Weather History & Observations

Time (PDT) Temp. Dew Point Humidity Pressure Visibility Wind Dir Wind Speed Gust Speed Precip Events Conditions
12:00 AM 68.0 °F 41.0 °F 37% 30.09 in 9.0 mi South 5.8 mph - N/A   Clear
1:00 AM 66.2 °F 41.0 °F 40% 30.11 in 9.0 mi SSE 6.9 mph - N/A   Clear
2:00 AM 64 °F 41 °F 31% 30.13 in 9 mi South 5.8 mph - -  
2:00 AM 64.4 °F 41.0 °F 42% 30.13 in 9.0 mi South 4.6 mph - N/A   Clear
3:00 AM 60.8 °F 41.0 °F 48% 30.14 in 9.0 mi South 2.3 mph - N/A   Clear
4:00 AM 57.2 °F 39.2 °F 51% 30.15 in 9.0 mi Calm Calm - N/A   Clear
5:00 AM 55 °F 39 °F 43% 30.15 in 9 mi Calm Calm - -  
5:00 AM 55.4 °F 39.2 °F 54% 30.15 in 9.0 mi Calm Calm - N/A   Clear
6:00 AM 55.4 °F 39.2 °F 54% 30.17 in 9.0 mi Calm Calm - N/A   Clear
7:00 AM 53.6 °F 39.2 °F 58% 30.19 in 9.0 mi Calm Calm - N/A   Clear
8:00 AM 53 °F 38 °F 45% 30.19 in 9 mi Calm Calm - -  
8:00 AM 53.6 °F 37.4 °F 54% 30.19 in 9.0 mi Calm Calm - N/A   Clear
9:00 AM 60.8 °F 39.2 °F 45% 30.18 in 9.0 mi North 2.3 mph - N/A   Clear
10:00 AM 66.2 °F 37.4 °F 35% 30.15 in 9.0 mi North 5.8 mph - N/A   Clear
11:00 AM 70 °F 39 °F 21% 30.12 in 9 mi North 5.8 mph - -  
11:00 AM 69.8 °F 39.2 °F 33% 30.12 in 9.0 mi North 3.5 mph - N/A   Clear
12:00 PM 73.4 °F 39.2 °F 29% 30.09 in 9.0 mi North 3.5 mph - N/A   Clear
1:00 PM 80.6 °F 42.8 °F 26% 30.04 in 9.0 mi SW 2.3 mph - N/A   Clear
2:00 PM 86.0 °F 42.8 °F 22% 30.01 in 9.0 mi South 4.6 mph - N/A   Clear
3:00 PM 87.8 °F 42.8 °F 21% 29.97 in 9.0 mi SSW 3.5 mph - N/A   Clear
4:00 PM 89.6 °F 39.2 °F 17% 29.95 in 9.0 mi Calm Calm - N/A   Clear
5:00 PM 92 °F 39 °F 8% 29.91 in 9 mi South 4.6 mph - -  
5:00 PM 91.4 °F 39.2 °F 16% 29.91 in 9.0 mi South 5.8 mph - N/A   Clear
6:00 PM 89.6 °F 41.0 °F 18% 29.90 in 9.0 mi SSW 9.2 mph - N/A   Clear
7:00 PM 84.2 °F 39.2 °F 20% 29.90 in 9.0 mi South 10.4 mph - N/A   Clear
8:00 PM 78 °F 40 °F 16% 29.90 in 9 mi SSE 8.1 mph - -  
8:00 PM 78.8 °F 39.2 °F 24% 29.90 in 9.0 mi SSE 8.1 mph - N/A   Clear
9:00 PM 75.2 °F 39.2 °F 27% 29.93 in 9.0 mi Calm Calm - N/A   Clear
10:00 PM 71.6 °F 39.2 °F 31% 29.94 in 9.0 mi Calm Calm - N/A   Clear
11:00 PM 68 °F 38 °F 23% 29.96 in 9 mi Calm Calm - -  
11:00 PM 68.0 °F 39.2 °F 35% 29.96 in 9.0 mi Calm Calm - N/A   Clear